This is the latest recevied weather packets stored in our database for station/object KC5TIL. If no packets are shown the sender has not sent any weather packets the latest 10 day(s).
| Time | Temp. | Humidity | Pressure | Rain* | Wind** | Luminosity | Snow |
|---|---|---|---|---|---|---|---|
| 1777185540 | 20.56° C | 94% | 1007.3 hPa | 0 mm | - | 0 W/m² | - |
| 1777185236 | 20.56° C | 94% | 1007.4 hPa | 0 mm | - | 0 W/m² | - |
| 1777184931 | 20.56° C | 94% | 1007.3 hPa | 0 mm | - | 0 W/m² | - |
| 1777184630 | 20.56° C | 94% | 1007.4 hPa | 0 mm | - | 0 W/m² | - |
| 1777184326 | 20.56° C | 93% | 1007.5 hPa | 0 mm | - | 0 W/m² | - |
| 1777184021 | 20° C | 93% | 1007.7 hPa | 0 mm | - | 0 W/m² | - |
| 1777183717 | 20° C | 92% | 1008.1 hPa | 0 mm | - | 0 W/m² | - |
| 1777183414 | 20° C | 91% | 1008.3 hPa | 7.87 mm | - | 0 W/m² | - |
| 1777183114 | 21.67° C | 86% | 1008.4 hPa | 10.16 mm | - | 0 W/m² | - |
| 1777182810 | 21.11° C | 82% | 1010 hPa | 1.27 mm | - | 0 W/m² | - |
| 1777182506 | 21.11° C | 86% | 1009.5 hPa | 0 mm | - | 0 W/m² | - |
| 1777182202 | 21.11° C | 85% | 1007.9 hPa | 0 mm | - | 0 W/m² | - |
| 1777181899 | 20° C | 90% | 1007.6 hPa | 0 mm | - | 0 W/m² | - |
| 1777181595 | 19.44° C | 91% | 1007.4 hPa | 0 mm | - | 0 W/m² | - |
| 1777181290 | 20° C | 92% | 1007.6 hPa | 0 mm | - | 0 W/m² | - |
| 1777180986 | 20.56° C | 93% | 1008.1 hPa | 0 mm | - | 0 W/m² | - |
| 1777180682 | 20.56° C | 92% | 1008.6 hPa | 0 mm | - | 0 W/m² | - |
| 1777180377 | 21.67° C | 92% | 1008.8 hPa | 0 mm | - | 0 W/m² | - |
| 1777180075 | 21.67° C | 92% | 1008.7 hPa | 0 mm | - | 0 W/m² | - |
| 1777179770 | 21.67° C | 93% | 1009.2 hPa | 0 mm | - | 0 W/m² | - |
| 1777179466 | 22.78° C | 92% | 1007.8 hPa | 1.27 mm | - | 0 W/m² | - |
| 1777179164 | 22.22° C | 92% | 1007.2 hPa | 22.86 mm | - | 0 W/m² | - |
| 1777178861 | 21.67° C | 93% | 1007.5 hPa | 76.71 mm | - | 0 W/m² | - |
| 1777178559 | 21.11° C | 94% | 1007.9 hPa | 71.37 mm | - | 0 W/m² | - |
| 1777178255 | 20.56° C | 94% | 1008.2 hPa | 27.69 mm | - | 0 W/m² | - |
* Rain latest hour (hover to see other rain measurements)
** Current wind speed in m/s (hover to see current wind gust speed)